User: anonymous   Login
Location: Unspecified
(0.0000°N, 0.0000°E)
Time: 01:35:32
(UTC+00:00)
Language:

DIAMOND RED - Orbit

View from above orbital plane
View from above orbital plane
View from above satellite
View from above satellite

Ground track
Ground track

The orbit data is extracted from the following two-line orbital elements,

1 42783U 17036U   24117.64658277  .13634305  23923-5  37268-3 0  9999
2 42783  97.0708 157.6240 0010367 256.2840 103.7309 16.44804491381754
Epoch (UTC): 26 April 2024 15:31:04
Eccentricity: 0.0010367
inclination: 97.0708°
perigee height: 146 km
apogee height: 160 km
right ascension of ascending node: 157.6240°
argument of perigee: 256.2840°
revolutions per day: 16.44804491
mean anomaly at epoch: 103.7309°
orbit number at epoch: 38175

The dashed part of the orbit path shows where the satellite is in the earth's shadow,  

DLR